• In Österreich
  • Länderverzeichnis
  • Für 7 Tage
  • Wassertemperatur
  • Satellitenkarten
  • Wetterkarte
  • News
  • Widgets
  • user-avatar
    Anmelden

    Stündliche Wetter Cvetki

    Heute, 19 Juli, Donnerstag

    Zeit Temperatur Niederschläge Wind Luftdruck Luftfeuchtigkeit
    00:00 +18°C° 0,1 mm 3 m/S 737 mmHg 89%
    01:00 +18°C° 0,1 mm 3 m/S 737 mmHg 91%
    02:00 +18°C° 0 mm 2 m/S 737 mmHg 96%
    03:00 +18°C° 0,5 mm 2 m/S 737 mmHg 96%
    04:00 +19°C° 0,5 mm 3 m/S 736 mmHg 96%
    05:00 +19°C° 0,5 mm 3 m/S 736 mmHg 96%
    06:00 +19°C° 0,1 mm 3 m/S 737 mmHg 94%
    07:00 +20°C° 0,1 mm 3 m/S 737 mmHg 92%
    08:00 +20°C° 0 mm 3 m/S 736 mmHg 90%
    09:00 +21°C° 0,1 mm 4 m/S 737 mmHg 84%
    10:00 +22°C° 0,1 mm 4 m/S 737 mmHg 78%
    11:00 +23°C° 0,1 mm 4 m/S 737 mmHg 73%
    12:00 +25°C° 0,3 mm 4 m/S 737 mmHg 73%
    13:00 +25°C° 0,3 mm 4 m/S 737 mmHg 72%
    14:00 +26°C° 0,3 mm 3 m/S 736 mmHg 72%
    15:00 +26°C° 1 mm 3 m/S 736 mmHg 77%
    16:00 +25°C° 1 mm 3 m/S 736 mmHg 82%
    17:00 +25°C° 1 mm 3 m/S 736 mmHg 86%
    18:00 +22°C° 0,4 mm 3 m/S 736 mmHg 88%
    19:00 +21°C° 0,4 mm 3 m/S 736 mmHg 91%
    20:00 +20°C° 0,4 mm 2 m/S 736 mmHg 93%
    21:00 +20°C° 0 mm 2 m/S 736 mmHg 94%
    22:00 +19°C° 0 mm 2 m/S 736 mmHg 96%
    23:00 +19°C° 0 mm 2 m/S 736 mmHg 98%

    Morgen, 20 Juli, Freitag

    Zeit Temperatur Niederschläge Wind Luftdruck Luftfeuchtigkeit
    00:00 +18°C° 0 mm 2 m/S 736 mmHg 98%
    01:00 +18°C° 0 mm 2 m/S 736 mmHg 98%
    02:00 +18°C° 0 mm 2 m/S 736 mmHg 98%
    03:00 +18°C° 0 mm 2 m/S 736 mmHg 98%
    04:00 +18°C° 0 mm 2 m/S 736 mmHg 98%
    05:00 +18°C° 0 mm 2 m/S 736 mmHg 97%
    06:00 +19°C° 0 mm 2 m/S 736 mmHg 96%
    07:00 +19°C° 0 mm 2 m/S 736 mmHg 95%
    08:00 +20°C° 0 mm 2 m/S 736 mmHg 94%
    09:00 +20°C° 0,2 mm 2 m/S 736 mmHg 92%
    10:00 +21°C° 0,2 mm 2 m/S 736 mmHg 91%
    11:00 +21°C° 0,2 mm 2 m/S 736 mmHg 89%
    12:00 +24°C° 0,4 mm 2 m/S 736 mmHg 84%
    13:00 +25°C° 0,4 mm 2 m/S 736 mmHg 79%
    14:00 +26°C° 0,4 mm 2 m/S 736 mmHg 74%
    15:00 +26°C° 0,4 mm 2 m/S 736 mmHg 75%
    16:00 +25°C° 0,4 mm 2 m/S 735 mmHg 75%
    17:00 +25°C° 0,4 mm 2 m/S 735 mmHg 76%
    18:00 +24°C° 0,1 mm 2 m/S 735 mmHg 81%
    19:00 +23°C° 0,1 mm 2 m/S 735 mmHg 87%
    20:00 +22°C° 0,1 mm 1 m/S 735 mmHg 92%
    21:00 +21°C° 0 mm 1 m/S 735 mmHg 94%
    22:00 +20°C° 0 mm 1 m/S 735 mmHg 96%
    23:00 +19°C° 0 mm 1 m/S 735 mmHg 98%

    übermorgen, 21 Juli, Samstag

    Zeit Temperatur Niederschläge Wind Luftdruck Luftfeuchtigkeit
    00:00 +19°C° 0 mm 1 m/S 735 mmHg 98%
    01:00 +19°C° 0 mm 1 m/S 735 mmHg 98%
    02:00 +16°C° 0 mm 0 m/S 735 mmHg 98%
    03:00 +17°C° 0 mm 0 m/S 735 mmHg 98%
    04:00 +19°C° 0 mm 1 m/S 735 mmHg 98%
    05:00 +19°C° 0 mm 1 m/S 735 mmHg 98%
    06:00 +20°C° 0 mm 1 m/S 735 mmHg 93%
    07:00 +22°C° 0 mm 1 m/S 735 mmHg 89%
    08:00 +23°C° 0 mm 1 m/S 736 mmHg 85%
    09:00 +24°C° 0,1 mm 1 m/S 736 mmHg 80%
    10:00 +26°C° 0,1 mm 1 m/S 736 mmHg 75%
    11:00 +27°C° 0,1 mm 1 m/S 736 mmHg 70%
    12:00 +27°C° 0,1 mm 1 m/S 736 mmHg 67%
    13:00 +28°C° 0,1 mm 1 m/S 735 mmHg 64%
    14:00 +29°C° 0,1 mm 1 m/S 735 mmHg 62%
    15:00 +27°C° 0,1 mm 0 m/S 735 mmHg 63%
    16:00 +26°C° 0,1 mm 0 m/S 735 mmHg 65%
    17:00 +26°C° 0,1 mm 0 m/S 735 mmHg 67%
    18:00 +24°C° 0,3 mm 0 m/S 735 mmHg 74%
    19:00 +25°C° 0,3 mm 1 m/S 735 mmHg 81%
    20:00 +23°C° 0,3 mm 1 m/S 735 mmHg 88%
    21:00 +23°C° 0,5 mm 1 m/S 735 mmHg 90%
    22:00 +22°C° 0,5 mm 1 m/S 735 mmHg 92%
    23:00 +19°C° 0,5 mm 0 m/S 735 mmHg 94%

    22 Juli, Sonntag

    Zeit Temperatur Niederschläge Wind Luftdruck Luftfeuchtigkeit
    00:00 +19°C° 0,1 mm 0 m/S 735 mmHg 95%
    01:00 +19°C° 0,1 mm 0 m/S 735 mmHg 95%
    02:00 +19°C° 0,1 mm 0 m/S 735 mmHg 96%
    03:00 +21°C° 1,2 mm 1 m/S 735 mmHg 96%
    04:00 +21°C° 1,2 mm 1 m/S 735 mmHg 97%
    05:00 +21°C° 1,2 mm 1 m/S 735 mmHg 98%
    06:00 +22°C° 1 mm 1 m/S 735 mmHg 96%
    07:00 +23°C° 1 mm 2 m/S 735 mmHg 94%
    08:00 +24°C° 1 mm 2 m/S 735 mmHg 92%
    09:00 +25°C° 1,7 mm 2 m/S 735 mmHg 89%
    10:00 +26°C° 1,7 mm 2 m/S 735 mmHg 86%
    11:00 +26°C° 1,7 mm 2 m/S 735 mmHg 83%
    12:00 +26°C° 1,6 mm 2 m/S 735 mmHg 83%
    13:00 +27°C° 1,6 mm 2 m/S 735 mmHg 82%
    14:00 +27°C° 1,6 mm 2 m/S 735 mmHg 81%
    15:00 +26°C° 1,6 mm 2 m/S 735 mmHg 84%
    16:00 +26°C° 1,6 mm 2 m/S 735 mmHg 86%
    17:00 +25°C° 1,6 mm 2 m/S 735 mmHg 89%
    18:00 +24°C° 0,3 mm 2 m/S 735 mmHg 91%
    19:00 +23°C° 0,3 mm 2 m/S 735 mmHg 93%
    20:00 +23°C° 0,3 mm 2 m/S 735 mmHg 95%
    21:00 +21°C° 0,4 mm 2 m/S 735 mmHg 96%
    22:00 +21°C° 0,4 mm 1 m/S 735 mmHg 97%
    23:00 +21°C° 0,4 mm 1 m/S 735 mmHg 98%

    23 Juli, Montag

    Zeit Temperatur Niederschläge Wind Luftdruck Luftfeuchtigkeit
    00:00 +20°C° 0,7 mm 1 m/S 735 mmHg 98%
    01:00 +20°C° 0,7 mm 1 m/S 735 mmHg 98%
    02:00 +20°C° 0,7 mm 1 m/S 735 mmHg 98%
    03:00 +20°C° 0,1 mm 1 m/S 735 mmHg 98%
    04:00 +20°C° 0,1 mm 1 m/S 735 mmHg 98%
    05:00 +20°C° 0,1 mm 1 m/S 735 mmHg 98%
    06:00 +21°C° 0,3 mm 1 m/S 736 mmHg 97%
    07:00 +22°C° 0,3 mm 1 m/S 736 mmHg 95%
    08:00 +23°C° 0,3 mm 1 m/S 736 mmHg 93%
    09:00 +23°C° 0,3 mm 1 m/S 736 mmHg 92%
    10:00 +23°C° 0,3 mm 1 m/S 736 mmHg 91%
    11:00 +24°C° 0,3 mm 1 m/S 736 mmHg 91%
    12:00 +24°C° 0,8 mm 2 m/S 736 mmHg 88%
    13:00 +25°C° 0,8 mm 2 m/S 736 mmHg 86%
    14:00 +25°C° 0,8 mm 2 m/S 736 mmHg 83%
    15:00 +25°C° 1,1 mm 2 m/S 736 mmHg 85%
    16:00 +25°C° 1,1 mm 2 m/S 736 mmHg 87%
    17:00 +25°C° 1,1 mm 2 m/S 736 mmHg 89%
    18:00 +24°C° 1,3 mm 2 m/S 736 mmHg 91%
    19:00 +23°C° 1,3 mm 2 m/S 736 mmHg 94%
    20:00 +21°C° 1,3 mm 2 m/S 736 mmHg 96%
    21:00 +21°C° 1,4 mm 2 m/S 736 mmHg 97%
    22:00 +21°C° 1,4 mm 1 m/S 736 mmHg 97%
    23:00 +21°C° 1,4 mm 1 m/S 736 mmHg 98%

    24 Juli, Dienstag

    Zeit Temperatur Niederschläge Wind Luftdruck Luftfeuchtigkeit
    00:00 +21°C° 0,9 mm 1 m/S 736 mmHg 98%
    01:00 +21°C° 0,9 mm 1 m/S 736 mmHg 98%
    02:00 +21°C° 0,9 mm 1 m/S 736 mmHg 98%
    03:00 +21°C° 1 mm 1 m/S 736 mmHg 98%
    04:00 +21°C° 1 mm 1 m/S 736 mmHg 98%
    05:00 +21°C° 1 mm 1 m/S 737 mmHg 99%
    06:00 +21°C° 0,5 mm 1 m/S 737 mmHg 97%
    07:00 +22°C° 0,5 mm 1 m/S 737 mmHg 96%
    08:00 +22°C° 0,5 mm 1 m/S 737 mmHg 95%
    09:00 +23°C° 0,8 mm 1 m/S 737 mmHg 94%
    10:00 +23°C° 0,8 mm 2 m/S 738 mmHg 92%
    11:00 +24°C° 0,8 mm 2 m/S 738 mmHg 91%
    12:00 +24°C° 0,7 mm 2 m/S 738 mmHg 89%
    13:00 +24°C° 0,7 mm 2 m/S 738 mmHg 88%
    14:00 +24°C° 0,7 mm 2 m/S 738 mmHg 86%
    15:00 +24°C° 0,5 mm 2 m/S 738 mmHg 87%
    16:00 +23°C° 0,5 mm 2 m/S 738 mmHg 88%
    17:00 +22°C° 0,5 mm 3 m/S 738 mmHg 88%
    18:00 +21°C° 0,2 mm 2 m/S 739 mmHg 91%
    19:00 +21°C° 0,2 mm 2 m/S 739 mmHg 93%
    20:00 +20°C° 0,2 mm 2 m/S 739 mmHg 96%
    21:00 +21°C° 0 mm 1 m/S 739 mmHg 96%
    22:00 +20°C° 0 mm 1 m/S 739 mmHg 97%
    23:00 +20°C° 0 mm 1 m/S 739 mmHg 98%
    Mehr zeigen